Temperature
15 16 16 16 16 15 15 14 14 15 15 16 15 15 16 17 17 17 17 17 17 17 17 17 17 17 17 17 16 16 16 15 15 15 15 14 14 14 14 14 14 14 14 14
15 15 16 16 16 16 16 15 15 15 15 15 16 16 16 16 16 16 16 16 17 17 17 17 17 17 17 16 16 16 15 15 15 15 15 14 14 14 14 14 14 14 14 14
13 14 15 15 16 16 15 15 15 15 15 15 14 14 15 15 16 16 16 16 16 16 17 17 17 17 17 16 16 16 15 15 15 15 14 14 14 14 14 14 13 13 13 13
12 14 14 15 15 15 15 15 14 15 14 14 15 15 16 16 16 16 16 16 16 16 16 16 16 16 16 16 16 15 15 15 15 15 14 14 14 14 13 13 13 13 13 13
11 13 13 14 15 15 15 14 14 14 14 14 14 15 15 16 16 16 16 16 16 16 16 16 16 16 16 16 15 15 15 15 15 14 14 14 14 13 13 13 13 13 13 13
11 13 13 14 15 15 15 14 14 14 14 13 13 12 14 16 15 15 15 16 16 16 16 16 16 16 16 16 15 15 15 15 15 14 14 14 13 13 13 13 13 13 13 13
11 12 12 13 14 15 14 13 14 15 14 14 13 14 15 15 15 15 15 15 15 16 16 16 16 16 16 15 15 15 15 15 14 14 14 13 13 13 13 13 13 13 12 12
10 11 12 13 13 13 13 15 15 15 15 15 15 15 15 15 15 15 15 15 15 15 15 15 15 15 15 15 15 15 15 14 14 14 13 13 13 13 13 13 12 12 12 12
10 12 12 13 14 14 15 15 15 15 15 15 14 14 15 15 15 15 15 15 15 15 15 15 15 15 15 15 15 14 14 14 14 14 13 13 13 13 12 12 12 12 12 12
10 11 12 13 14 14 14 14 15 15 15 14 14 14 14 14 14 14 15 15 15 15 15 15 15 15 15 14 14 14 14 14 13 13 13 13 13 12 12 12 12 12 11 11
9 10 12 13 14 14 14 14 14 14 14 14 14 14 14 14 14 14 14 14 14 14 14 14 14 14 14 14 14 14 13 13 13 13 13 12 12 12 12 12 12 12 11 11
10 11 11 12 13 14 14 14 14 14 14 14 14 14 14 13 14 14 14 14 14 14 14 14 14 14 13 13 13 13 13 13 13 13 12 12 12 12 12 11 11 11 11 11
12 13 13 13 13 13 13 13 13 13 13 13 13 13 13 13 13 13 13 13 13 13 13 13 13 13 13 13 13 13 13 13 12 12 12 12 12 11 11 11 11 11 10 10
12 12 12 12 12 12 12 12 12 12 13 13 13 13 13 13 13 13 13 13 13 13 13 13 13 13 13 13 13 12 12 12 12 12 12 12 11 11 11 11 11 10 10 10
12 12 11 12 12 12 12 12 12 12 12 12 13 13 13 13 13 12 12 12 12 12 12 12 12 12 12 12 12 12 12 12 12 12 12 11 11 11 11 11 11 10 10 10
11 11 11 11 11 11 11 11 11 11 12 12 12 12 12 12 12 12 12 12 12 12 12 12 12 12 12 12 12 12 12 12 12 11 11 11 11 11 10 10 10 10 10 10
10 10 10 10 11 11 11 11 11 11 11 12 12 12 11 11 11 11 12 11 11 11 11 11 12 12 12 12 11 11 11 11 11 11 11 11 11 10 10 10 10 10 10 10
10 10 10 10 10 10 10 10 11 11 11 11 11 11 11 11 11 11 11 11 11 11 11 11 11 11 11 11 11 11 11 11 11 11 10 10 10 10 10 10 10 10 9 9
10 10 10 10 10 10 10 10 10 10 11 10 11 10 11 11 11 11 10 10 11 11 11 11 11 11 11 11 11 11 11 10 10 10 10 10 10 10 10 9 9 9 9 9
10 9 10 10 10 10 10 10 10 10 10 10 10 10 10 10 10 10 10 10 10 11 10 10 10 10 10 10 10 10 10 10 10 10 10 9 9 9 9 9 9 9 9 8
9 9 9 9 9 9 9 10 10 10 10 10 10 10 10 10 10 10 10 10 10 10 10 10 10 10 10 10 10 10 10 10 9 9 9 9 9 9 9 8 8 8 8 8
9 9 9 9 9 9 9 9 9 9 9 9 9 9 9 9 9 9 9 9 10 10 9 9 9 9 9 9 9 9 9 9 9 9 9 8 8 8 8 8 8 8 8 8
8 8 8 8 8 8 8 9 9 9 9 9 9 9 9 9 9 9 9 9 9 9 9 9 9 9 9 9 9 9 9 9 9 8 8 8 8 8 8 8 8 7 7 7
8 8 8 8 8 8 8 8 8 8 8 8 8 8 8 8 8 8 8 9 9 9 9 9 9 8 8 8 9 8 8 8 8 8 8 8 8 7 7 7 7 7 7 7
7 7 7 7 7 7 7 7 7 7 7 8 8 8 8 8 8 8 8 8 8 8 8 8 8 8 8 8 8 8 8 8 8 8 7 7 7 7 7 7 7 6 6 6
6 6 6 7 7 7 7 7 7 7 7 7 7 7 7 7 7 7 7 8 8 8 8 8 8 8 8 8 8 8 7 7 7 7 7 7 7 7 6 6 6 6 6 6
6 6 6 6 6 6 6 6 6 6 6 6 6 6 6 6 7 7 7 7 7 7 7 7 7 7 7 7 7 7 7 7 7 7 7 6 6 6 6 6 6 6 5 5
Wind_Speed
5 4 3 4 5 6 6 7 7 7 7 7 6 4 4 2 1 1 1 2 3 4 4 4 5 5 6 6 6 6 7 6 6 6 5 5 5 4 4 4 4 4 3 3
3 3 3 5 7 7 7 6 6 6 7 5 4 2 2 2 1 1 2 3 3 4 4 5 6 6 6 6 6 7 7 7 6 6 5 5 5 5 4 4 4 4 4 4
3 4 1 6 7 7 5 4 6 7 7 3 2 3 4 4 3 3 3 3 3 4 5 6 7 7 7 7 6 7 7 6 6 6 6 6 5 5 5 4 4 4 4 4
1 1 6 7 3 5 5 3 3 3 3 3 4 4 3 3 3 2 3 3 4 4 4 5 5 5 5 5 6 6 6 6 6 6 6 5 5 5 5 4 4 4 4 4
3 3 7 6 2 3 4 4 2 3 3 2 1 2 2 1 1 3 4 4 4 4 4 3 4 5 6 6 6 6 6 6 7 7 7 6 6 6 5 4 4 4 4 4
3 3 6 6 3 2 3 3 3 3 3 1 2 0 5 4 2 3 3 2 3 2 1 2 4 6 7 6 7 7 8 7 7 7 8 8 8 6 4 4 5 4 4 4
5 5 7 6 4 2 4 6 3 4 4 4 4 6 5 4 3 3 3 3 2 1 2 3 4 6 7 6 7 7 6 6 6 6 7 7 6 5 5 5 4 4 4 3
5 5 7 3 2 4 5 3 3 3 4 5 5 4 4 4 4 4 3 2 2 2 2 2 3 6 7 7 6 4 5 5 6 6 6 5 6 5 5 6 5 4 4 3
7 7 4 2 4 4 2 3 3 3 4 4 3 4 5 5 5 4 3 3 2 2 2 2 3 6 7 6 4 5 5 5 5 5 5 5 6 6 5 5 5 5 4 4
4 5 5 4 4 4 4 4 4 3 4 3 4 5 5 5 5 4 3 3 2 2 2 2 3 4 5 5 5 6 5 4 4 5 4 4 5 6 6 6 6 5 5 5
4 6 5 5 5 4 4 4 4 3 4 4 4 5 5 4 5 5 3 2 3 3 3 3 3 3 3 5 6 6 5 4 4 4 5 5 4 4 6 7 8 8 7 7
7 6 4 6 6 5 4 5 5 4 4 4 4 5 4 4 4 4 3 3 3 3 3 3 3 3 3 5 7 7 5 4 4 4 4 4 4 2 4 5 7 8 8 7
7 6 6 7 6 6 6 6 6 5 6 6 5 5 4 4 4 3 3 3 4 4 3 3 3 3 3 4 6 7 6 5 4 4 4 4 4 4 3 2 3 6 7 8
6 4 6 7 7 6 6 6 5 5 6 5 5 4 3 3 3 3 4 4 3 2 2 3 3 3 3 4 5 6 5 5 5 4 4 4 5 5 4 4 3 2 4 6
7 6 7 7 6 5 4 4 4 5 5 4 3 3 3 4 4 4 3 2 1 1 2 3 3 3 3 4 5 5 5 4 4 4 4 4 4 4 4 4 4 3 2 2
6 5 6 6 7 6 5 5 5 6 5 4 4 4 4 4 3 3 2 3 3 3 3 3 4 4 3 4 5 4 4 5 4 4 3 3 3 4 4 4 4 4 4 3
4 6 6 6 7 6 6 6 6 6 5 5 5 4 3 2 2 3 3 3 3 3 4 4 4 3 4 4 5 4 4 4 4 3 3 4 4 4 4 4 4 4 4 3
7 8 7 7 7 6 6 5 5 5 5 5 4 3 3 4 4 4 3 2 1 2 3 4 3 3 4 4 5 4 4 4 4 4 3 3 3 3 3 4 4 4 2 2
5 5 5 6 6 5 5 5 5 5 4 3 3 4 4 4 4 4 3 3 3 4 5 4 4 3 3 4 4 4 4 4 4 3 3 3 3 3 3 3 3 4 3 3
4 4 4 4 4 4 4 4 4 4 4 3 3 4 4 4 4 4 4 4 5 5 4 4 4 4 4 4 4 4 4 5 5 4 3 3 4 4 3 3 3 3 3 3
4 4 3 4 4 4 4 4 3 4 4 3 4 5 5 5 4 4 4 4 4 3 3 4 4 3 3 4 5 4 4 5 5 5 5 4 4 4 4 4 4 4 4 4
4 3 3 3 3 4 4 3 2 3 3 3 3 3 3 4 4 4 4 4 4 4 3 3 3 4 4 4 4 4 5 5 4 4 4 4 5 4 4 4 4 4 4 4
3 3 3 3 3 3 3 3 2 2 3 3 3 4 4 4 4 4 4 3 3 4 3 3 4 5 5 4 4 4 4 5 5 5 5 5 5 5 5 5 5 4 4 4
3 2 2 3 2 2 3 4 2 2 2 2 3 3 3 3 3 3 3 3 3 3 3 4 5 5 5 3 4 4 4 4 4 4 4 4 4 4 4 4 4 4 4 5
3 3 2 2 2 2 3 3 2 2 1 1 2 2 2 2 3 3 2 3 3 3 2 3 5 5 4 3 4 4 4 4 4 4 4 4 4 4 4 4 4 4 4 4
3 2 2 3 3 3 2 2 2 2 1 2 2 2 2 1 1 1 1 2 3 2 2 2 3 3 3 3 4 4 4 4 4 4 4 4 5 5 4 4 5 4 4 4
3 3 2 3 3 2 2 2 2 2 2 2 2 2 1 1 1 1 1 1 2 2 2 2 2 2 3 3 3 3 3 3 3 3 4 4 4 4 4 5 4 4 3 4
Wind_Direction
238 245 215 230 227 201 199 198 203 233 238 259 265 254 259 253 261 264 260 227 213 210 211 201 196 196 192 190 186 178 169 176 189 185 175 167 163 165 163 162 164 161 151 153
280 267 234 248 245 223 222 217 222 242 258 259 264 258 255 237 197 238 275 270 246 229 215 207 203 199 193 193 188 175 175 185 182 172 168 170 169 164 158 160 158 154 163 166
260 290 315 257 234 215 211 207 194 222 246 264 273 256 235 222 209 226 255 273 261 242 226 215 207 197 193 193 179 174 179 179 176 172 172 179 174 162 166 169 161 163 174 171
213 57 237 244 231 199 200 225 222 241 250 234 247 257 232 201 199 240 267 265 264 254 242 233 205 191 182 167 167 175 179 181 177 174 177 176 171 177 179 174 172 176 181 183
153 222 270 287 258 181 194 245 231 226 259 277 322 356 287 240 223 248 259 253 252 241 231 219 197 179 163 164 166 173 187 193 188 181 179 178 185 190 188 179 183 185 184 183
155 202 241 256 276 271 151 252 250 202 213 204 92 5 266 282 280 275 284 272 273 260 205 195 198 171 165 175 176 190 198 198 191 183 182 187 194 192 186 182 189 183 184 190
188 223 259 268 282 103 160 243 258 215 207 190 205 226 253 273 267 255 260 254 241 193 202 211 191 169 173 180 197 204 193 183 179 184 189 192 189 184 174 173 168 173 187 199
173 207 250 271 125 170 222 248 237 231 216 216 236 253 258 255 257 257 266 250 200 189 225 222 181 173 177 194 203 181 171 174 181 185 192 189 177 178 172 169 170 181 188 206
197 215 241 234 213 244 236 253 257 240 238 217 239 252 253 256 257 261 261 240 205 191 215 233 198 183 189 200 173 160 165 178 183 182 187 181 179 178 173 175 182 193 192 206
240 260 264 260 271 279 259 252 257 250 241 226 239 252 249 254 258 262 255 233 206 178 192 229 216 201 198 181 161 158 167 178 178 175 177 177 182 182 182 187 192 197 201 209
251 272 289 275 267 272 290 288 277 273 252 234 238 252 250 254 255 252 249 236 203 195 205 222 216 205 187 170 159 159 165 174 178 179 177 179 185 195 197 203 201 200 206 201
232 232 224 259 270 272 273 272 267 272 281 266 235 245 255 258 257 247 236 230 220 213 206 219 212 205 190 175 166 162 166 172 179 179 180 180 180 200 223 216 214 212 208 203
237 249 249 268 278 267 257 261 267 267 261 264 256 241 240 251 255 239 234 235 228 223 214 210 209 211 200 184 173 171 175 181 182 183 184 185 185 188 207 246 224 214 212 209
246 252 272 270 270 271 266 269 273 276 270 257 250 245 241 245 243 231 234 237 236 224 215 208 207 219 209 186 178 178 176 181 181 186 187 190 194 197 196 195 203 234 224 213
251 238 246 266 274 276 274 277 283 282 280 276 252 238 230 221 220 229 238 228 211 220 220 208 215 232 206 182 178 177 175 180 182 183 186 189 190 188 191 198 203 207 203 218
256 259 259 261 262 266 268 263 262 268 268 259 254 245 229 220 220 221 212 188 192 222 229 220 229 233 198 183 177 177 181 181 176 177 181 183 184 187 193 198 204 206 206 205
247 262 261 266 265 263 260 256 253 257 261 255 250 237 220 206 214 223 225 216 213 227 228 222 235 229 197 185 179 180 176 179 170 171 186 190 189 192 196 199 204 204 208 197
235 243 241 239 247 256 266 265 260 259 259 260 247 223 213 210 219 231 238 231 241 260 246 232 230 215 200 193 184 177 176 178 180 183 189 193 193 193 192 195 198 196 193 181
254 252 254 251 248 243 252 259 265 267 270 255 233 229 228 230 228 226 219 204 216 242 251 236 223 205 202 204 185 173 176 177 178 184 186 187 185 186 186 189 192 193 186 181
271 263 263 270 271 258 259 267 268 272 269 247 233 235 239 241 228 219 211 223 230 235 231 218 210 206 204 199 181 175 177 179 181 183 184 188 193 197 196 194 192 192 192 194
276 274 274 276 283 284 273 268 263 264 263 241 226 231 236 242 230 216 213 241 256 228 210 207 206 208 199 189 178 176 177 181 183 185 188 192 195 198 199 198 198 198 201 203
284 282 279 281 288 295 294 285 270 271 268 255 246 237 229 236 233 230 233 238 243 212 202 205 207 203 192 183 183 182 184 184 186 188 191 193 195 198 203 203 206 206 205 205
282 275 275 279 278 287 305 308 285 262 256 251 241 235 231 229 225 222 247 251 224 216 210 211 210 200 190 186 183 184 186 187 190 193 197 199 201 202 205 207 209 206 205 205
293 288 287 295 309 319 310 306 297 276 267 268 258 243 233 231 249 248 245 236 217 213 218 211 198 198 195 197 186 187 191 194 194 193 196 199 200 201 202 202 204 207 208 206
304 309 315 318 306 285 281 293 305 300 292 290 285 274 259 240 240 248 241 226 216 215 224 217 209 204 200 200 193 193 196 200 195 189 194 197 199 200 203 204 206 207 208 208
307 300 291 281 274 269 273 275 267 266 262 280 296 299 296 294 264 247 240 229 210 207 208 212 210 208 207 204 200 198 198 201 203 203 199 197 196 196 199 202 201 203 204 206
322 315 313 315 307 286 273 262 253 265 260 255 279 289 285 286 285 268 245 238 222 217 211 210 211 209 206 201 200 198 196 196 197 198 198 198 198 200 202 200 202 202 202 202
Height
1519 1516 1516 1516 1516 1518 1521 1523 1528 1523 1521 1514 1511 1510 1508 1508 1508 1509 1510 1510 1511 1512 1513 1515 1517 1518 1521 1523 1526 1528 1530 1533 1535 1537 1538 1540 1541 1543 1544 1545 1546 1547 1548 1548
1520 1516 1515 1515 1513 1514 1515 1516 1517 1516 1515 1510 1509 1509 1508 1508 1508 1508 1509 1509 1510 1510 1512 1513 1514 1516 1518 1520 1522 1525 1527 1529 1532 1534 1535 1537 1539 1540 1542 1543 1544 1545 1546 1547
1526 1519 1516 1519 1510 1510 1511 1510 1512 1514 1511 1507 1507 1507 1507 1506 1506 1507 1507 1508 1508 1509 1510 1511 1512 1513 1515 1517 1520 1522 1524 1527 1529 1531 1533 1534 1536 1538 1539 1540 1541 1543 1544 1545
1528 1524 1528 1512 1503 1503 1506 1507 1507 1507 1506 1505 1505 1504 1505 1504 1505 1505 1505 1506 1506 1506 1507 1508 1510 1511 1513 1515 1517 1519 1521 1524 1526 1528 1530 1531 1533 1535 1536 1537 1539 1540 1541 1542
1530 1528 1520 1508 1501 1502 1505 1506 1504 1504 1504 1504 1504 1503 1503 1502 1503 1503 1503 1504 1504 1504 1504 1505 1507 1508 1510 1512 1514 1516 1518 1520 1522 1525 1526 1528 1530 1531 1533 1534 1536 1537 1539 1540
1528 1526 1524 1508 1499 1498 1501 1507 1501 1501 1502 1503 1503 1506 1502 1500 1500 1501 1501 1501 1501 1501 1501 1502 1504 1505 1507 1509 1511 1513 1515 1517 1519 1521 1523 1525 1526 1528 1530 1531 1533 1534 1535 1537
1525 1524 1515 1503 1498 1498 1510 1507 1499 1499 1499 1500 1501 1501 1499 1499 1499 1499 1499 1499 1499 1499 1499 1500 1501 1503 1504 1506 1507 1510 1512 1514 1516 1518 1519 1521 1523 1525 1526 1528 1529 1530 1532 1533
1521 1522 1515 1499 1498 1502 1501 1497 1496 1496 1496 1497 1497 1497 1496 1496 1496 1496 1496 1496 1496 1496 1496 1497 1499 1500 1501 1502 1505 1507 1509 1511 1513 1514 1516 1518 1519 1521 1522 1524 1525 1527 1528 1529
1509 1507 1499 1497 1496 1496 1496 1495 1494 1494 1494 1494 1494 1494 1493 1493 1493 1493 1493 1493 1493 1493 1494 1495 1496 1497 1498 1500 1502 1504 1505 1507 1509 1511 1512 1514 1516 1517 1518 1520 1521 1522 1523 1525
1503 1498 1495 1494 1494 1494 1494 1493 1492 1491 1491 1491 1491 1490 1490 1490 1490 1490 1490 1490 1490 1491 1491 1492 1493 1494 1496 1498 1499 1501 1502 1504 1505 1507 1508 1510 1512 1513 1514 1515 1517 1518 1519 1520
1500 1495 1493 1491 1491 1491 1491 1490 1489 1488 1488 1488 1488 1487 1487 1487 1487 1487 1487 1487 1488 1488 1488 1489 1490 1491 1493 1495 1497 1498 1499 1501 1502 1503 1505 1506 1507 1509 1510 1512 1513 1514 1515 1516
1495 1491 1492 1490 1489 1489 1488 1487 1485 1485 1484 1484 1484 1484 1484 1483 1483 1484 1484 1485 1485 1485 1486 1487 1488 1489 1490 1492 1493 1495 1496 1498 1499 1500 1501 1502 1503 1505 1506 1508 1509 1510 1511 1512
1488 1488 1487 1486 1486 1485 1485 1484 1483 1481 1481 1480 1480 1480 1480 1480 1480 1481 1481 1482 1482 1483 1483 1484 1485 1486 1487 1489 1490 1492 1493 1494 1496 1497 1498 1499 1500 1501 1502 1503 1505 1506 1507 1508
1484 1485 1483 1482 1482 1481 1480 1480 1479 1478 1477 1477 1477 1477 1477 1476 1477 1477 1478 1478 1479 1480 1480 1481 1482 1483 1484 1486 1487 1489 1490 1491 1493 1494 1495 1495 1496 1497 1498 1499 1500 1501 1502 1504
1480 1480 1479 1478 1477 1477 1476 1475 1475 1474 1473 1473 1473 1473 1473 1473 1473 1473 1474 1475 1476 1477 1477 1478 1479 1480 1481 1482 1484 1485 1487 1488 1489 1490 1491 1492 1493 1494 1495 1496 1496 1497 1498 1500
1475 1475 1474 1474 1473 1472 1472 1471 1470 1469 1469 1469 1468 1468 1469 1469 1469 1470 1471 1472 1473 1473 1474 1475 1476 1477 1478 1479 1480 1482 1483 1484 1485 1486 1488 1488 1489 1490 1491 1492 1492 1493 1494 1495
1470 1469 1469 1468 1468 1467 1467 1467 1466 1465 1465 1464 1464 1464 1465 1465 1465 1466 1467 1468 1469 1470 1470 1471 1472 1473 1474 1475 1477 1478 1479 1480 1482 1483 1484 1485 1485 1486 1487 1488 1488 1489 1490 1491
1465 1465 1465 1464 1463 1462 1462 1462 1462 1461 1461 1460 1460 1460 1461 1461 1461 1462 1463 1464 1465 1465 1466 1468 1469 1470 1471 1472 1473 1474 1475 1476 1477 1478 1480 1481 1481 1482 1483 1483 1484 1485 1486 1487
1460 1460 1460 1460 1459 1458 1458 1457 1457 1457 1457 1456 1456 1456 1457 1457 1458 1458 1459 1459 1460 1460 1462 1464 1465 1466 1466 1468 1469 1470 1471 1472 1473 1475 1476 1477 1478 1478 1479 1479 1480 1481 1482 1483
1456 1456 1455 1455 1455 1454 1453 1453 1453 1452 1452 1453 1452 1452 1452 1453 1454 1454 1455 1454 1455 1456 1458 1459 1460 1461 1462 1463 1465 1466 1467 1468 1469 1470 1471 1472 1474 1474 1475 1476 1477 1477 1478 1479
1452 1451 1451 1450 1450 1450 1449 1449 1448 1448 1448 1448 1448 1448 1448 1449 1450 1450 1449 1449 1451 1453 1454 1455 1456 1457 1458 1459 1460 1462 1463 1464 1465 1466 1467 1468 1469 1470 1471 1472 1472 1473 1474 1475
1448 1448 1447 1446 1446 1445 1445 1445 1445 1444 1444 1443 1443 1444 1444 1445 1445 1445 1445 1446 1447 1449 1450 1451 1452 1453 1454 1455 1456 1457 1458 1459 1460 1461 1462 1463 1465 1466 1467 1467 1468 1469 1470 1471
1445 1444 1444 1443 1442 1442 1441 1441 1441 1440 1440 1439 1439 1440 1440 1441 1441 1441 1442 1443 1444 1445 1446 1447 1447 1449 1450 1451 1451 1453 1454 1455 1455 1457 1458 1459 1460 1461 1462 1463 1464 1465 1466 1466
1442 1441 1441 1440 1439 1438 1437 1437 1437 1436 1436 1436 1436 1437 1437 1437 1437 1438 1439 1440 1441 1441 1442 1443 1444 1445 1445 1446 1447 1448 1449 1450 1451 1452 1453 1455 1456 1457 1458 1459 1459 1460 1461 1461
1439 1438 1437 1436 1435 1435 1434 1433 1433 1432 1432 1432 1432 1433 1434 1434 1434 1435 1436 1436 1437 1437 1438 1439 1440 1440 1441 1442 1443 1444 1444 1445 1446 1448 1449 1450 1451 1452 1453 1454 1454 1455 1456 1456
1436 1435 1434 1433 1433 1432 1431 1430 1429 1429 1429 1429 1429 1429 1430 1430 1431 1431 1432 1432 1433 1434 1434 1435 1435 1436 1436 1437 1438 1439 1440 1441 1442 1443 1444 1445 1446 1447 1448 1449 1449 1450 1451 1451
1433 1432 1431 1430 1429 1428 1427 1427 1426 1426 1426 1426 1425 1426 1426 1426 1427 1427 1428 1428 1429 1429 1430 1430 1431 1431 1432 1433 1433 1434 1435 1436 1437 1438 1439 1440 1441 1442 1443 1444 1444 1445 1446 1446